Shawano, WI

10:59 AM CST on December 16, 2017 (GMT -0600)
Shawano

Weather History for KEZS - October, 2012

Change the Weather History Date:

Monday, October 8, 2012

  Actual Average (KCLI) Record (KCLI)
Temperature  
Mean Temperature 46 °F -  
Max Temperature 60 °F 61 °F 84 °F (1997)
Min Temperature 32 °F 39 °F 25 °F (1978)
Degree Days  
Heating Degree Days 19    
Moisture  
Dew Point 27 °F    
Average Humidity 46    
Maximum Humidity 65    
Minimum Humidity 31    
Precipitation  
Precipitation 0.00 in - - ()
Sea Level Pressure  
Sea Level Pressure 29.88 in    
Wind  
Wind Speed 4 mph (SSW)    
Max Wind Speed 15 mph    
Max Gust Speed 25 mph    
Visibility 10 miles    
Events      
Averages and records for this station are not official NWS values.
T = Trace of Precipitation, MM = Missing Value Source: NWS Daily Summary

Daily Weather History Graph

Daily Weather History Graph

Search for Another Location

Airport or City:

Trip Planner

Search our weather history database for the weather conditions in past years. The results will help you decide how hot, cold, wet, or windy it might be!

Date:

Astronomy

Oct. 08, 2012 Rise Set
Actual Time 7:01 AM CDT 6:21 PM CDT
Civil Twilight 6:32 AM CDT 6:50 PM CDT
Nautical Twilight 5:58 AM CDT 7:24 PM CDT
Astronomical Twilight 5:24 AM CDT 7:58 PM CDT
Moon No Moon Rise 2:25 PM CDT (10/8)
Length of Visible Light 12h 18m
Length of Day
11h 19m
Last Quarter, 46% of the Moon is Illuminated
Oct 8
Last Quarter
Oct 15
New
Oct 21
First Quarter
Oct 29
Full
Nov 6
Last Quarter

Hourly Weather History & Observations

Time (CDT) Temp. Windchill Dew Point Humidity Pressure Visibility Wind Dir Wind Speed Gust Speed Precip Events Conditions
12:15 AM 35.6 °F - 21.2 °F 56% 30.01 in 10.0 mi Calm Calm - N/A   Clear
12:35 AM 35.6 °F - 21.2 °F 56% 30.01 in 10.0 mi Calm Calm - N/A   Clear
12:55 AM 35.6 °F - 21.2 °F 56% 30.01 in 10.0 mi Calm Calm - N/A   Clear
1:15 AM 33.8 °F - 21.2 °F 60% 30.01 in 10.0 mi Calm Calm - N/A   Clear
1:35 AM 33.8 °F - 21.2 °F 60% 30.01 in 10.0 mi Calm Calm - N/A   Clear
1:55 AM 33.8 °F - 21.2 °F 60% 30.01 in 10.0 mi Calm Calm - N/A   Clear
2:15 AM 33.8 °F - 21.2 °F 60% 30.01 in 10.0 mi Calm Calm - N/A   Clear
2:35 AM 33.8 °F - 21.2 °F 60% 30.00 in 10.0 mi Calm Calm - N/A   Clear
2:55 AM 33.8 °F - 21.2 °F 60% 29.99 in 10.0 mi Calm Calm - N/A   Clear
3:15 AM 32.0 °F - 21.2 °F 64% 29.99 in 10.0 mi Calm Calm - N/A   Clear
3:35 AM 32.0 °F 28.7 °F 21.2 °F 64% 29.99 in 10.0 mi SSW 3.5 mph - N/A   Clear
3:55 AM 33.8 °F - 21.2 °F 60% 29.98 in 10.0 mi Calm Calm - N/A   Clear
4:15 AM 33.8 °F - 21.2 °F 60% 29.98 in 10.0 mi Calm Calm - N/A   Clear
4:35 AM 32.0 °F - 21.2 °F 64% 29.98 in 10.0 mi Calm Calm - N/A   Clear
4:55 AM 33.8 °F - 21.2 °F 60% 29.97 in 10.0 mi Calm Calm - N/A   Clear
5:15 AM 32.0 °F - 21.2 °F 64% 29.97 in 10.0 mi Calm Calm - N/A   Clear
5:35 AM 33.8 °F - 21.2 °F 60% 29.96 in 10.0 mi Calm Calm - N/A   Clear
5:55 AM 33.8 °F - 21.2 °F 60% 29.96 in 10.0 mi Calm Calm - N/A   Clear
6:15 AM 33.8 °F - 21.2 °F 60% 29.97 in 10.0 mi Calm Calm - N/A   Clear
6:35 AM 33.8 °F - 21.2 °F 60% 29.96 in 10.0 mi Calm Calm - N/A   Clear
6:55 AM 33.8 °F - 21.2 °F 60% 29.96 in 10.0 mi Calm Calm - N/A   Clear
7:15 AM 33.8 °F - 21.2 °F 60% 29.96 in 10.0 mi Calm Calm - N/A   Clear
7:35 AM 33.8 °F - 23.0 °F 65% 29.96 in 10.0 mi Calm Calm - N/A   Clear
7:55 AM 35.6 °F - 23.0 °F 60% 29.96 in 10.0 mi Calm Calm - N/A   Clear
8:15 AM 37.4 °F 34.9 °F 23.0 °F 56% 29.96 in 10.0 mi South 3.5 mph - N/A   Clear
8:35 AM 39.2 °F 37.0 °F 24.8 °F 56% 29.96 in 10.0 mi South 3.5 mph - N/A   Clear
8:55 AM 41.0 °F 39.0 °F 26.6 °F 57% 29.95 in 10.0 mi South 3.5 mph - N/A   Clear
9:15 AM 42.8 °F 39.3 °F 26.6 °F 53% 29.94 in 10.0 mi South 5.8 mph - N/A   Clear
9:35 AM 46.4 °F 41.9 °F 26.6 °F 46% 29.94 in 10.0 mi SSW 9.2 mph - N/A   Clear
9:55 AM 50.0 °F - 26.6 °F 40% 29.93 in 10.0 mi South 9.2 mph - N/A   Mostly Cloudy
10:15 AM 50.0 °F - 28.4 °F 43% 29.92 in 10.0 mi SSW 8.1 mph - N/A   Overcast
10:35 AM 53.6 °F - 28.4 °F 38% 29.92 in 10.0 mi SSW 8.1 mph - N/A   Mostly Cloudy
10:55 AM 53.6 °F - 28.4 °F 38% 29.91 in 10.0 mi South 8.1 mph 19.6 mph N/A   Scattered Clouds
11:15 AM 55.4 °F - 30.2 °F 38% 29.91 in 10.0 mi South 10.4 mph 21.9 mph N/A   Scattered Clouds
11:35 AM 55.4 °F - 30.2 °F 38% 29.91 in 10.0 mi SSW 9.2 mph 20.7 mph N/A   Overcast
11:55 AM 55.4 °F - 30.2 °F 38% 29.90 in 10.0 mi SSW 10.4 mph 19.6 mph N/A   Mostly Cloudy
12:15 PM 57.2 °F - 30.2 °F 36% 29.89 in 10.0 mi SW 13.8 mph 23.0 mph N/A   Mostly Cloudy
12:55 PM 59.0 °F - 30.2 °F 34% 29.86 in 10.0 mi SSW 13.8 mph 23.0 mph N/A   Mostly Cloudy
1:15 PM 60.8 °F - 30.2 °F 31% 29.85 in 10.0 mi SSW 13.8 mph 21.9 mph N/A   Mostly Cloudy
1:35 PM 59.0 °F - 30.2 °F 34% 29.85 in 10.0 mi South 13.8 mph 21.9 mph N/A   Mostly Cloudy
1:55 PM 59.0 °F - 30.2 °F 34% 29.84 in 10.0 mi SSW 13.8 mph 25.3 mph N/A   Overcast
2:15 PM 59.0 °F - 30.2 °F 34% 29.84 in 10.0 mi South 13.8 mph 17.3 mph N/A   Overcast
2:35 PM 59.0 °F - 30.2 °F 34% 29.83 in 10.0 mi SSW 10.4 mph 19.6 mph N/A   Overcast
2:55 PM 59.0 °F - 30.2 °F 34% 29.83 in 10.0 mi SSW 10.4 mph - N/A   Overcast
3:15 PM 59.0 °F - 30.2 °F 34% 29.82 in 10.0 mi SSW 15.0 mph 24.2 mph N/A   Overcast
3:35 PM 59.0 °F - 30.2 °F 34% 29.82 in 10.0 mi SSW 10.4 mph 19.6 mph N/A   Scattered Clouds
3:55 PM 57.2 °F - 30.2 °F 36% 29.80 in 10.0 mi SSW 8.1 mph 20.7 mph N/A   Scattered Clouds
4:15 PM 57.2 °F - 30.2 °F 36% 29.80 in 10.0 mi SSW 12.7 mph 19.6 mph N/A   Mostly Cloudy
4:35 PM 57.2 °F - 30.2 °F 36% 29.79 in 10.0 mi South 9.2 mph 18.4 mph N/A   Mostly Cloudy
4:55 PM 57.2 °F - 30.2 °F 36% 29.79 in 10.0 mi South 8.1 mph 17.3 mph N/A   Mostly Cloudy
5:15 PM 57.2 °F - 30.2 °F 36% 29.78 in 10.0 mi South 10.4 mph 18.4 mph N/A   Overcast
5:35 PM 59.0 °F - 30.2 °F 34% 29.78 in 10.0 mi South 10.4 mph 17.3 mph N/A   Overcast
5:55 PM 59.0 °F - 30.2 °F 34% 29.77 in 10.0 mi South 10.4 mph 18.4 mph N/A   Mostly Cloudy
6:15 PM 59.0 °F - 30.2 °F 34% 29.77 in 10.0 mi South 9.2 mph 16.1 mph N/A   Mostly Cloudy
6:35 PM 57.2 °F - 30.2 °F 36% 29.77 in 10.0 mi South 10.4 mph 20.7 mph N/A   Overcast
6:55 PM 57.2 °F - 30.2 °F 36% 29.78 in 10.0 mi South 10.4 mph - N/A   Mostly Cloudy
7:15 PM 57.2 °F - 32.0 °F 38% 29.78 in 10.0 mi SSW 8.1 mph - N/A   Scattered Clouds
7:35 PM 57.2 °F - 32.0 °F 38% 29.78 in 10.0 mi South 8.1 mph - N/A   Mostly Cloudy
7:55 PM 57.2 °F - 32.0 °F 38% 29.78 in 10.0 mi South 11.5 mph 19.6 mph N/A   Mostly Cloudy
8:15 PM 57.2 °F - 32.0 °F 38% 29.78 in 10.0 mi South 10.4 mph 19.6 mph N/A   Mostly Cloudy
8:35 PM 57.2 °F - 32.0 °F 38% 29.77 in 10.0 mi SSW 10.4 mph 18.4 mph N/A   Mostly Cloudy
8:55 PM 57.2 °F - 32.0 °F 38% 29.78 in 10.0 mi South 11.5 mph 20.7 mph N/A   Overcast
9:15 PM 55.4 °F - 30.2 °F 38% 29.78 in 10.0 mi SSW 11.5 mph 19.6 mph N/A   Mostly Cloudy
9:35 PM 55.4 °F - 30.2 °F 38% 29.78 in 10.0 mi SSW 9.2 mph 18.4 mph N/A   Mostly Cloudy
9:55 PM 55.4 °F - 30.2 °F 38% 29.77 in 10.0 mi South 11.5 mph 21.9 mph N/A   Mostly Cloudy
10:15 PM 55.4 °F - 30.2 °F 38% 29.77 in 10.0 mi SSW 12.7 mph 21.9 mph N/A   Scattered Clouds
10:55 PM 55.4 °F - 30.2 °F 38% 29.76 in 10.0 mi South 11.5 mph 21.9 mph N/A   Clear
11:15 PM 55.4 °F - 30.2 °F 38% 29.76 in 10.0 mi SSW 12.7 mph 19.6 mph N/A   Clear
11:35 PM 55.4 °F - 30.2 °F 38% 29.76 in 10.0 mi SSW 9.2 mph - N/A   Mostly Cloudy
11:55 PM 55.4 °F - 30.2 °F 38% 29.76 in 10.0 mi SW 13.8 mph 19.6 mph N/A   Scattered Clouds